Temperature
17 17 17 17 17 18 19 21 22 22 21 20 20 20 19 17 17 15 12 13 13 13 13 13 13 13 13 13 13 13 13 13 14 14 14 14 14 14 14 14 14 14 14 14 14 14 14 14 14
17 17 17 18 17 18 19 21 21 21 20 19 19 19 18 15 14 13 12 12 12 12 13 13 13 13 13 13 13 13 13 13 13 13 14 14 14 14 14 14 14 14 14 14 14 14 14 14 14
16 16 17 17 18 19 20 21 20 19 19 19 18 17 16 14 13 12 12 12 12 12 12 12 13 13 13 13 13 13 13 13 13 13 13 13 13 14 14 14 14 14 14 14 14 14 14 14 14
16 16 17 17 18 19 20 20 19 19 19 19 18 16 14 13 12 12 12 12 12 12 12 12 12 12 12 13 13 13 13 13 13 13 13 13 13 13 13 13 13 13 13 13 13 13 13 14 14
16 17 17 17 18 19 20 20 20 19 18 18 17 16 12 12 12 12 11 11 12 12 12 12 12 12 12 12 12 12 13 13 13 13 13 13 13 13 13 13 13 13 13 13 13 13 13 13 13
16 17 16 17 18 19 19 19 19 19 18 18 17 15 12 11 11 11 11 11 11 11 11 12 12 12 12 12 12 12 12 12 12 12 12 12 12 13 13 12 12 12 13 13 13 13 13 13 13
16 16 16 18 18 18 19 19 19 18 17 17 16 15 11 11 11 11 11 11 11 11 11 11 11 12 12 12 12 12 12 12 12 12 12 12 12 12 12 12 12 12 12 12 12 12 12 12 12
15 16 17 17 18 18 18 18 17 17 16 16 15 14 11 10 11 11 11 11 11 11 11 11 11 11 11 12 12 12 12 11 12 12 12 12 12 12 12 12 12 12 12 12 12 12 12 12 12
15 14 15 17 17 17 17 16 16 15 15 14 13 12 11 11 10 10 10 10 10 10 10 11 11 11 11 11 11 11 11 11 11 11 11 11 11 11 11 11 11 11 11 11 11 11 11 11 11
14 13 15 15 16 16 16 16 15 14 13 12 11 10 10 10 10 10 10 10 10 10 10 10 11 11 11 11 11 11 11 11 11 11 11 11 11 11 11 11 11 11 11 11 11 11 11 11 11
14 13 14 14 15 15 15 15 14 14 13 12 11 10 9 9 9 9 9 10 10 10 10 10 10 10 10 10 10 10 10 10 11 10 10 10 10 10 10 10 10 10 10 10 10 10 10 10 10
13 13 14 13 13 13 14 14 13 12 12 12 11 10 9 9 9 9 9 9 9 9 10 10 10 10 10 10 10 10 10 10 10 10 10 10 10 10 10 10 10 10 10 10 10 10 10 10 10
13 12 12 12 12 12 12 12 12 11 11 11 10 10 9 9 9 8 8 8 9 9 9 9 9 9 9 9 9 9 9 10 10 10 10 10 10 10 10 10 10 10 10 10 10 9 9 9 10
12 12 12 12 11 11 11 11 11 11 11 10 10 9 9 8 8 8 8 8 8 8 9 9 9 9 9 9 9 9 9 9 9 9 9 9 9 9 9 9 9 9 9 9 9 9 9 9 9
12 11 11 11 11 11 10 10 10 10 10 10 9 8 8 7 7 7 7 8 8 8 8 8 8 8 8 9 9 9 9 8 9 9 9 9 9 9 9 9 9 9 9 9 9 9 9 9 9
11 11 10 11 11 11 10 9 10 10 10 9 9 8 7 7 7 7 7 7 7 7 7 7 7 7 8 8 8 8 8 8 8 8 8 8 8 8 8 8 8 8 8 8 8 8 8 8 8
10 10 10 10 11 10 9 9 9 10 9 9 8 8 7 6 6 6 6 6 6 7 7 7 7 7 7 7 7 7 7 7 7 8 7 7 8 7 8 8 8 8 8 8 8 8 8 8 8
9 10 11 10 10 9 8 8 8 9 9 8 8 7 7 6 6 6 5 5 6 6 6 6 6 6 6 6 6 6 6 7 7 7 7 7 7 7 7 7 7 7 7 7 7 7 7 7 7
9 9 10 10 10 9 8 8 8 8 8 7 7 6 6 5 5 5 5 5 5 5 5 5 5 5 5 5 6 6 6 6 6 6 6 6 6 7 7 7 7 7 7 7 7 7 7 7 7
9 9 9 9 9 8 7 7 8 8 7 7 6 6 6 5 5 4 4 4 4 4 4 4 5 5 5 5 5 5 5 5 5 5 5 5 6 6 6 6 6 6 6 6 6 6 6 6 6
8 8 8 8 7 7 7 6 7 7 7 7 6 6 5 5 4 4 3 3 4 4 4 4 4 4 4 4 4 4 5 5 5 5 5 5 5 5 5 5 5 5 5 5 5 5 5 6 5
7 7 7 7 6 6 7 5 7 7 6 6 5 5 5 4 4 3 3 3 3 4 4 3 4 4 4 4 4 4 4 4 4 4 4 4 4 4 4 4 4 5 5 5 5 5 5 5 5
6 6 6 6 6 5 6 5 5 7 6 5 5 5 4 4 3 3 3 3 3 3 3 3 3 3 3 4 4 4 4 4 4 4 4 4 4 4 4 4 4 4 4 4 4 4 4 4 4
5 6 6 5 5 4 5 5 5 5 5 5 5 4 4 4 3 2 2 2 2 2 2 2 2 3 3 3 3 3 3 3 3 3 3 3 3 3 3 3 3 3 3 3 3 3 3 4 4
5 4 3 3 3 4 5 5 4 5 5 4 4 4 4 3 2 2 2 1 1 1 2 2 2 2 2 2 3 3 3 3 3 3 3 3 3 3 3 3 3 3 3 3 3 3 3 3 3
3 4 3 3 4 4 4 4 4 4 4 4 3 3 3 2 2 2 1 1 1 1 1 1 1 1 2 2 2 2 2 2 2 2 2 2 2 2 2 2 2 2 2 2 2 2 2 2 2
3 3 4 3 3 3 4 4 4 3 3 2 2 2 2 2 2 1 1 1 1 1 1 1 1 1 1 1 1 1 1 1 1 2 2 2 1 1 2 2 2 1 1 1 1 1 1 1 2
3 3 2 2 3 3 5 4 3 3 2 1 1 1 1 1 1 1 1 0 0 0 0 0 0 0 0 0 0 0 1 1 1 1 1 1 1 1 1 1 1 1 1 1 1 1 1 1 1
1 2 2 2 3 3 3 3 3 2 2 1 0 1 1 1 1 0 0 0 0 -0 -0 -0 -0 -0 -0 -0 -0 -0 -0 -0 -0 -0 0 0 0 0 0 0 0 0 0 0 -0 -0 0 0 0
1 1 1 1 1 2 2 2 1 1 1 0 0 1 1 0 0 -0 -0 -1 -1 -1 -1 -1 -1 -1 -1 -1 -1 -1 -1 -1 -1 -1 -1 -1 -0 -0 -0 -0 -0 -0 -1 -1 -1 -1 -1 -1 -1
Wind_Speed
12 11 6 2 3 5 9 6 3 1 2 4 6 6 6 6 5 7 4 6 8 9 9 9 12 12 12 12 12 13 13 13 12 13 13 13 13 13 14 14 14 14 15 15 15 15 15 15 15
10 6 4 3 4 7 8 6 4 1 4 4 5 5 5 7 7 8 5 6 7 9 10 10 12 12 13 13 13 12 12 12 12 12 12 13 13 13 13 13 14 14 14 14 14 14 14 14 14
8 5 3 4 5 8 5 2 5 5 5 3 4 5 4 5 6 5 5 6 7 9 11 11 12 13 13 13 13 12 12 12 12 12 12 12 12 13 13 13 13 13 13 14 14 13 14 14 13
4 3 4 6 10 8 5 2 5 5 3 3 5 5 5 6 4 6 7 7 8 9 11 12 12 13 13 13 12 12 12 12 12 12 12 12 13 13 13 13 13 13 13 13 13 13 13 13 13
3 3 5 7 11 7 2 2 4 4 4 4 4 4 6 5 9 9 7 7 8 8 11 12 12 12 12 13 12 12 12 12 12 12 12 12 13 13 13 13 13 12 12 13 12 12 12 12 11
3 4 6 10 10 6 3 1 2 3 4 4 4 4 5 6 8 7 7 6 8 8 10 11 12 12 12 12 12 11 11 12 12 12 12 12 12 13 13 12 12 12 12 12 12 12 11 11 11
4 4 8 9 8 6 4 3 3 3 3 2 2 5 6 6 6 6 7 7 8 9 9 9 10 10 11 11 11 11 11 11 11 11 11 11 12 12 12 12 12 11 11 11 11 11 11 10 10
4 4 7 8 8 5 1 1 1 1 2 2 2 3 5 6 6 6 7 7 7 7 7 8 8 8 9 10 10 11 11 10 10 11 11 11 10 11 11 11 11 11 11 10 10 10 10 9 8
4 4 7 6 5 2 2 1 2 4 4 3 4 5 7 11 9 7 6 5 6 6 5 6 7 7 7 8 9 9 9 9 9 9 10 9 8 9 9 9 10 10 10 9 9 9 8 8 7
3 5 6 3 4 2 2 2 3 3 3 2 4 7 10 10 9 8 7 6 5 5 4 4 5 5 6 6 7 7 7 8 9 8 8 7 7 7 7 8 9 9 9 8 8 7 7 7 6
4 5 3 3 5 4 1 1 1 3 3 3 5 8 8 8 7 7 6 5 6 5 5 4 4 5 5 5 5 5 6 6 7 7 7 7 7 7 7 7 7 7 7 7 6 6 5 6 6
5 4 3 3 4 3 1 0 1 2 1 3 5 9 9 8 8 7 6 5 5 5 5 4 5 5 4 4 4 5 5 5 6 6 7 7 6 6 6 6 5 5 5 5 5 4 5 6 6
8 5 3 2 2 3 3 2 2 3 2 3 6 8 8 8 7 5 5 5 5 5 4 4 5 5 4 4 4 5 5 5 6 6 6 6 5 4 5 5 5 5 5 5 4 4 5 5 6
3 3 4 3 3 3 3 4 3 5 3 4 6 7 7 7 6 6 6 5 5 5 4 4 4 5 5 4 4 5 6 6 7 7 6 6 6 5 4 4 5 5 5 5 4 5 4 4 5
3 4 5 5 4 4 3 6 7 5 5 5 6 6 6 6 5 5 5 5 5 5 5 4 4 5 5 5 5 5 5 6 6 6 7 7 6 5 5 4 4 5 5 5 5 5 5 4 5
4 5 6 6 6 5 5 8 4 5 7 7 6 6 6 6 5 4 5 5 4 5 5 5 4 5 6 5 5 5 6 6 5 6 7 7 7 6 5 4 4 5 5 5 4 3 3 3 3
6 6 7 5 6 5 7 6 2 3 6 6 5 6 6 5 5 5 5 5 5 5 5 5 4 5 6 5 5 6 6 6 6 6 6 7 7 6 5 4 5 5 4 4 3 3 2 2 3
5 7 7 6 5 5 7 7 3 3 5 5 4 5 5 5 5 5 5 6 5 5 5 5 5 5 6 5 5 5 5 5 6 6 6 6 7 7 6 5 5 5 3 3 3 3 3 2 2
5 7 8 4 2 4 7 7 5 5 5 5 4 4 5 4 5 5 6 6 6 5 5 5 6 5 5 4 3 3 3 3 3 4 6 6 6 7 6 5 5 5 3 3 3 2 2 2 2
7 8 7 4 0 2 5 7 5 6 6 6 6 5 5 5 5 6 6 6 6 6 5 5 5 5 5 3 3 2 3 2 3 3 5 6 6 6 5 5 3 3 3 3 3 3 2 1 2
8 7 6 4 2 4 4 6 6 5 5 5 5 5 5 7 7 6 6 4 5 5 5 5 5 5 4 4 4 3 3 3 2 2 2 4 5 5 5 4 4 3 2 1 1 2 2 1 2
6 3 4 3 3 4 4 5 5 6 5 6 6 6 5 5 6 6 6 5 5 5 5 5 5 5 4 4 4 5 3 3 2 2 2 3 4 4 4 4 3 3 2 2 1 2 1 1 1
3 2 3 4 5 4 5 4 5 4 5 6 6 6 5 5 6 6 6 6 5 5 5 5 5 5 4 4 4 4 3 2 2 3 3 2 2 3 3 3 3 2 2 2 2 2 1 1 0
1 1 2 3 2 5 8 7 5 3 4 4 5 5 5 5 5 5 5 5 4 5 5 5 5 5 4 4 3 3 4 3 4 3 2 1 1 2 2 2 2 2 2 1 1 1 1 1 1
0 2 0 2 4 6 4 5 5 2 1 3 4 5 5 5 5 6 6 5 5 5 5 4 5 4 4 4 3 3 3 3 4 3 3 2 1 1 0 1 1 1 1 1 1 1 1 1 1
3 4 4 4 4 2 2 5 4 2 3 5 4 3 4 4 4 5 5 5 5 5 5 5 5 4 4 4 3 3 2 2 2 2 2 2 1 1 0 1 1 1 1 1 1 1 2 2 1
2 3 2 1 3 3 5 4 2 3 4 4 3 2 3 3 3 4 4 4 4 5 5 5 5 4 4 4 3 3 2 2 2 2 1 1 1 0 0 1 1 2 2 2 1 1 2 2 2
1 1 1 3 3 5 5 4 3 3 2 2 2 2 2 3 3 3 3 3 3 3 4 4 4 4 4 3 3 2 2 2 2 2 1 1 0 0 1 1 1 2 2 2 2 2 2 2 3
2 2 3 3 4 3 4 2 2 3 3 3 2 2 2 2 2 3 2 2 2 3 3 3 4 3 3 3 2 2 2 2 2 1 1 1 0 0 1 2 2 3 3 3 2 3 3 3 3
1 3 3 3 4 4 3 3 2 3 3 3 2 1 1 1 1 2 2 1 2 2 2 3 3 3 3 3 3 2 2 2 2 2 1 1 1 1 2 2 3 3 3 3 3 4 4 4 4
Wind_Direction
298 276 255 255 239 233 240 237 230 154 60 41 35 37 49 40 40 114 120 82 95 106 104 104 101 99 98 95 91 89 86 82 79 77 74 72 71 70 69 68 68 67 66 65 64 64 64 63 62
290 275 253 235 235 236 236 218 212 104 93 84 50 47 58 72 72 101 106 89 96 103 105 102 100 100 98 95 92 90 87 83 79 77 75 72 72 72 70 69 69 68 66 65 64 63 64 63 61
276 258 246 226 232 239 243 172 126 104 102 108 81 40 44 76 91 101 102 108 100 101 101 101 100 100 100 97 94 91 89 85 80 77 75 73 73 73 71 70 69 69 68 67 65 64 63 62 60
258 229 245 245 242 245 257 80 102 116 113 106 116 100 82 51 73 100 112 111 104 101 100 103 101 101 101 98 96 93 89 87 83 80 77 75 75 75 74 71 69 68 68 68 67 65 63 61 57
241 238 228 236 243 246 259 107 137 146 151 138 136 126 105 74 88 107 114 108 105 101 100 107 103 100 99 97 96 94 91 88 85 81 78 76 76 76 74 72 69 67 69 69 68 67 64 60 54
238 236 232 231 235 231 214 195 180 162 145 137 144 136 113 111 106 116 115 109 103 101 99 108 109 105 100 98 95 93 91 88 85 81 79 78 76 74 72 71 68 66 69 70 70 68 64 59 52
243 237 244 247 241 233 203 177 186 174 157 164 156 135 127 130 117 119 116 112 107 103 102 102 109 110 106 100 95 92 89 88 86 82 78 76 76 75 72 69 67 65 67 70 69 67 63 59 53
274 269 250 247 246 250 223 116 105 124 123 70 83 138 138 141 127 122 116 112 108 103 101 102 100 105 108 104 100 95 91 88 88 83 78 75 74 74 72 67 66 65 64 67 67 65 62 56 50
277 253 246 250 252 234 149 135 73 42 75 71 52 55 96 123 124 121 121 113 108 105 100 101 101 99 108 111 104 98 94 90 86 80 80 77 71 70 71 69 68 65 61 62 64 62 59 53 46
227 239 248 291 311 308 158 142 135 132 133 133 96 84 107 125 134 138 140 139 127 114 103 97 103 101 101 107 106 98 91 86 80 72 70 70 70 67 70 74 72 66 61 60 60 62 64 53 40
223 241 269 314 331 346 69 118 113 172 189 190 162 141 135 139 146 151 152 146 138 131 112 97 95 97 96 97 100 94 92 87 83 74 63 60 62 64 62 65 65 61 59 52 48 45 39 43 38
236 248 275 297 336 348 334 189 202 225 165 50 119 140 145 154 161 163 158 143 130 121 116 98 96 93 89 97 98 96 91 85 78 74 67 61 54 54 55 53 52 51 48 46 36 27 33 41 38
230 238 247 278 303 317 317 266 248 235 157 90 109 130 150 160 162 155 145 136 128 124 118 113 106 100 95 90 94 90 82 84 84 79 72 65 57 47 49 47 48 43 42 40 24 25 37 35 36
238 214 224 224 233 252 261 245 238 239 176 150 144 151 158 159 160 150 144 144 140 136 126 116 113 108 105 98 90 85 81 83 84 77 72 66 63 56 48 46 44 38 38 35 27 33 32 32 40
254 241 233 227 220 212 230 245 226 215 184 177 170 164 159 154 149 152 148 143 141 138 127 124 125 117 114 108 98 89 81 82 80 80 77 67 61 55 51 45 43 30 32 36 35 38 38 37 40
247 240 237 211 208 201 209 243 209 191 189 190 182 169 162 153 153 146 138 137 137 137 131 129 131 120 113 108 101 96 88 82 79 78 75 65 59 58 56 46 43 35 39 36 32 36 45 38 31
221 238 238 215 203 191 214 242 203 175 176 182 176 169 162 154 151 145 138 138 135 136 134 129 123 120 113 114 110 99 89 83 75 70 65 61 56 52 58 51 44 38 43 41 34 33 40 41 29
226 244 250 233 198 200 223 237 216 174 174 186 179 172 167 165 165 148 138 135 130 126 126 123 117 117 118 114 104 97 88 81 74 69 65 61 55 48 51 51 45 40 43 41 41 42 35 48 25
272 265 265 277 177 213 238 241 228 207 203 209 195 176 174 167 141 133 132 133 131 129 128 126 118 117 121 125 121 117 108 94 81 70 68 63 58 51 50 46 43 40 45 37 44 54 48 37 34
261 268 271 288 10 235 259 258 238 210 205 203 196 186 176 160 142 135 130 137 141 139 136 133 128 125 128 132 128 125 121 105 101 84 71 65 59 52 48 48 40 41 49 46 47 55 38 14 23
247 249 263 265 292 246 277 279 228 208 198 192 184 179 172 165 159 151 143 143 145 143 146 143 135 130 129 128 113 110 95 90 80 79 73 60 59 55 51 48 40 36 47 62 54 57 64 43 1
250 277 284 261 244 248 201 265 244 196 191 198 193 182 175 156 151 153 155 158 157 153 146 139 137 129 124 126 131 139 138 129 129 124 97 71 61 56 52 49 46 40 39 38 23 40 51 81 14
261 317 283 263 247 269 227 238 271 190 204 204 191 177 164 160 158 159 162 162 155 147 145 142 136 130 133 134 137 146 130 118 120 118 109 91 77 66 56 47 44 40 39 38 26 18 29 51 356
246 305 288 265 237 251 223 211 264 219 211 186 174 166 163 159 153 151 149 143 144 145 142 143 141 136 139 141 139 140 136 133 133 131 132 128 112 86 53 40 38 33 30 25 8 4 350 331 301
201 123 175 220 219 240 199 206 241 227 161 145 154 162 160 155 154 154 153 156 154 152 151 149 147 147 146 145 144 146 142 148 155 156 159 150 131 74 72 9 16 8 0 344 340 314 290 282 273
218 188 188 218 230 248 218 222 235 149 112 94 95 111 124 138 152 157 162 163 162 160 159 158 159 156 155 156 152 148 142 149 147 145 152 163 172 189 196 342 332 319 311 301 307 284 280 276 257
210 224 243 272 281 263 231 224 219 113 102 102 102 111 141 161 159 155 154 157 161 167 170 172 167 162 165 164 157 155 153 142 143 143 124 136 161 193 215 296 299 298 297 286 286 253 264 273 261
279 237 153 210 226 249 250 221 220 176 153 129 130 144 155 156 156 155 157 161 166 169 172 169 167 165 163 162 170 173 155 144 139 152 150 149 123 351 234 248 264 275 282 277 262 253 256 257 263
186 201 221 239 247 229 252 248 351 150 150 145 136 115 142 148 156 157 159 162 159 152 155 165 163 157 159 163 166 159 161 161 152 163 175 184 225 251 251 257 253 251 252 259 249 249 251 253 260
199 206 188 202 251 235 250 254 353 68 83 99 105 117 144 155 136 139 155 153 149 159 165 169 163 163 167 166 164 164 168 169 170 185 196 208 227 248 263 267 261 260 262 255 245 247 252 250 255
Height
1495 1496 1498 1501 1503 1503 1499 1488 1483 1485 1486 1490 1491 1492 1496 1502 1506 1517 1518 1517 1518 1519 1521 1523 1525 1527 1528 1530 1531 1532 1533 1534 1535 1536 1537 1537 1538 1538 1539 1539 1540 1540 1540 1541 1541 1541 1542 1542 1542
1494 1496 1500 1500 1502 1505 1495 1485 1485 1486 1489 1491 1493 1496 1498 1505 1509 1512 1514 1516 1518 1519 1521 1523 1525 1527 1529 1530 1531 1532 1534 1535 1536 1537 1537 1538 1538 1539 1540 1540 1540 1541 1541 1542 1542 1542 1543 1543 1544
1494 1496 1499 1497 1497 1496 1489 1481 1484 1488 1490 1492 1496 1499 1503 1508 1510 1512 1513 1515 1517 1519 1521 1523 1525 1527 1529 1530 1531 1533 1534 1535 1536 1537 1538 1538 1539 1540 1540 1541 1541 1541 1542 1542 1543 1543 1544 1544 1545
1495 1498 1497 1496 1493 1486 1483 1483 1485 1488 1491 1493 1497 1502 1505 1510 1510 1511 1513 1515 1517 1519 1521 1523 1525 1527 1528 1530 1532 1533 1534 1535 1536 1537 1538 1539 1539 1540 1541 1541 1541 1542 1542 1543 1543 1544 1544 1545 1545
1494 1496 1496 1495 1489 1483 1481 1483 1485 1488 1491 1494 1497 1501 1506 1509 1509 1511 1512 1515 1516 1518 1520 1523 1525 1526 1528 1530 1532 1533 1534 1535 1536 1537 1538 1539 1539 1540 1541 1541 1542 1542 1543 1543 1544 1544 1545 1546 1546
1494 1492 1495 1493 1486 1482 1483 1484 1486 1488 1491 1494 1497 1501 1506 1508 1509 1510 1512 1514 1516 1518 1520 1522 1524 1526 1528 1530 1531 1533 1534 1535 1536 1537 1538 1539 1540 1540 1541 1541 1542 1543 1543 1544 1544 1545 1545 1546 1547
1493 1490 1490 1485 1483 1482 1482 1484 1486 1488 1491 1494 1496 1500 1505 1507 1508 1510 1512 1514 1516 1518 1520 1522 1524 1526 1528 1529 1531 1532 1534 1535 1536 1537 1538 1539 1540 1540 1541 1542 1542 1543 1543 1544 1545 1545 1546 1546 1547
1489 1488 1484 1483 1482 1483 1483 1484 1486 1488 1491 1494 1496 1499 1503 1505 1506 1509 1511 1514 1516 1517 1519 1521 1523 1525 1527 1529 1530 1532 1533 1535 1536 1537 1538 1539 1540 1540 1541 1542 1542 1543 1544 1544 1545 1545 1546 1547 1547
1489 1491 1486 1482 1481 1482 1483 1485 1487 1489 1491 1494 1497 1498 1500 1502 1505 1508 1510 1512 1514 1516 1518 1520 1522 1524 1526 1528 1530 1531 1533 1534 1535 1536 1537 1538 1539 1540 1541 1542 1542 1543 1543 1544 1545 1545 1546 1547 1547
1488 1489 1484 1483 1481 1481 1483 1485 1487 1490 1492 1495 1497 1499 1500 1501 1503 1505 1508 1510 1512 1514 1517 1519 1521 1523 1525 1527 1528 1530 1532 1533 1534 1536 1537 1538 1539 1540 1540 1541 1542 1543 1543 1544 1545 1545 1546 1546 1547
1485 1485 1483 1483 1482 1482 1483 1486 1488 1489 1492 1494 1495 1497 1498 1500 1502 1504 1507 1509 1511 1513 1515 1517 1519 1522 1524 1525 1527 1529 1531 1532 1534 1535 1536 1537 1538 1539 1540 1541 1541 1542 1543 1544 1544 1545 1545 1546 1547
1483 1483 1483 1484 1484 1484 1485 1486 1488 1489 1492 1492 1493 1494 1496 1498 1500 1502 1505 1507 1509 1511 1513 1516 1518 1520 1522 1524 1526 1527 1529 1531 1532 1534 1535 1536 1537 1538 1539 1539 1540 1541 1542 1543 1543 1544 1545 1546 1546
1482 1482 1483 1484 1485 1485 1486 1487 1488 1489 1491 1492 1492 1493 1495 1497 1499 1502 1504 1506 1507 1509 1512 1513 1516 1518 1520 1522 1524 1526 1528 1530 1531 1533 1534 1535 1536 1537 1538 1538 1540 1540 1541 1542 1543 1543 1544 1545 1545
1480 1481 1482 1484 1485 1485 1487 1487 1488 1487 1489 1490 1491 1492 1494 1496 1497 1499 1501 1503 1505 1507 1509 1511 1514 1516 1518 1520 1522 1524 1526 1528 1530 1531 1533 1534 1535 1536 1537 1538 1539 1539 1540 1541 1542 1542 1543 1543 1544
1480 1481 1481 1482 1483 1484 1487 1486 1485 1485 1487 1488 1489 1491 1493 1494 1496 1497 1499 1501 1503 1505 1507 1509 1512 1514 1516 1518 1520 1522 1525 1526 1528 1530 1531 1532 1534 1535 1536 1537 1538 1539 1540 1540 1541 1541 1542 1542 1542
1480 1481 1482 1479 1480 1482 1488 1484 1481 1482 1483 1485 1487 1489 1491 1492 1494 1496 1497 1499 1501 1503 1505 1507 1509 1511 1513 1516 1519 1521 1523 1524 1526 1528 1529 1531 1532 1533 1535 1536 1536 1537 1538 1539 1539 1540 1540 1540 1541
1481 1481 1477 1478 1477 1479 1483 1481 1479 1479 1480 1483 1485 1487 1489 1490 1492 1494 1495 1496 1498 1500 1502 1504 1506 1509 1511 1514 1516 1518 1521 1522 1524 1526 1528 1529 1531 1532 1533 1534 1535 1536 1536 1537 1538 1538 1539 1539 1539
1481 1478 1473 1474 1474 1477 1479 1479 1478 1478 1479 1481 1483 1485 1486 1488 1490 1491 1493 1494 1496 1498 1500 1502 1504 1506 1509 1511 1514 1516 1518 1520 1522 1524 1526 1527 1529 1530 1531 1532 1533 1534 1535 1535 1536 1537 1537 1537 1538
1475 1475 1474 1472 1472 1476 1477 1476 1476 1476 1478 1479 1481 1482 1484 1486 1488 1490 1491 1492 1494 1496 1497 1499 1502 1504 1506 1509 1511 1514 1516 1518 1520 1522 1524 1525 1527 1528 1529 1530 1531 1532 1533 1533 1534 1535 1535 1535 1536
1474 1475 1474 1474 1473 1476 1476 1475 1472 1472 1474 1475 1477 1479 1481 1484 1486 1487 1488 1490 1491 1493 1495 1497 1500 1502 1505 1508 1509 1512 1514 1516 1518 1520 1522 1523 1524 1526 1527 1528 1529 1530 1531 1531 1532 1533 1533 1534 1534
1473 1475 1475 1476 1476 1476 1477 1476 1470 1469 1470 1472 1474 1476 1479 1481 1482 1484 1486 1487 1489 1491 1493 1496 1498 1500 1503 1506 1507 1510 1512 1514 1516 1518 1519 1521 1522 1523 1525 1526 1527 1528 1528 1529 1530 1530 1531 1531 1533
1473 1473 1474 1475 1480 1480 1478 1483 1467 1464 1467 1469 1471 1473 1475 1478 1480 1482 1483 1485 1486 1489 1492 1494 1496 1498 1501 1503 1505 1508 1510 1511 1514 1516 1517 1518 1520 1521 1522 1523 1524 1525 1526 1526 1527 1528 1528 1529 1530
1474 1474 1475 1476 1478 1481 1477 1483 1471 1462 1466 1466 1468 1470 1473 1475 1477 1479 1481 1483 1485 1487 1490 1492 1494 1496 1499 1501 1503 1506 1508 1510 1512 1513 1514 1516 1517 1519 1520 1520 1521 1522 1523 1524 1524 1525 1526 1527 1527
1474 1476 1476 1477 1480 1487 1475 1480 1472 1465 1463 1463 1465 1468 1470 1473 1476 1478 1480 1482 1484 1486 1487 1490 1492 1494 1497 1499 1501 1504 1505 1507 1509 1510 1512 1513 1515 1516 1517 1517 1518 1519 1520 1521 1521 1522 1523 1524 1524
1475 1481 1486 1487 1489 1481 1468 1472 1471 1462 1460 1461 1464 1466 1468 1471 1474 1476 1477 1479 1481 1483 1485 1488 1490 1492 1494 1496 1499 1501 1502 1504 1506 1507 1509 1510 1511 1512 1513 1514 1515 1516 1517 1517 1518 1519 1520 1520 1521
1477 1477 1485 1486 1479 1473 1472 1471 1467 1461 1460 1461 1463 1466 1468 1470 1472 1474 1476 1478 1479 1481 1483 1485 1487 1489 1491 1493 1495 1498 1500 1501 1503 1504 1506 1507 1508 1509 1510 1511 1512 1512 1513 1514 1514 1515 1516 1516 1517
1476 1477 1476 1480 1477 1478 1470 1466 1462 1461 1461 1463 1465 1466 1468 1469 1471 1473 1475 1476 1478 1479 1481 1483 1485 1487 1489 1490 1493 1495 1496 1498 1499 1501 1502 1504 1505 1506 1506 1507 1508 1508 1509 1510 1510 1511 1511 1512 1513
1477 1477 1481 1482 1481 1477 1464 1462 1465 1463 1463 1464 1465 1466 1467 1469 1470 1472 1474 1475 1476 1478 1479 1481 1483 1485 1486 1488 1490 1491 1493 1494 1496 1498 1498 1500 1501 1502 1503 1503 1504 1504 1505 1505 1506 1506 1507 1507 1508
1480 1480 1480 1479 1475 1475 1471 1469 1462 1461 1462 1463 1465 1466 1467 1468 1469 1471 1472 1473 1474 1476 1477 1479 1481 1482 1483 1485 1487 1488 1489 1491 1492 1494 1495 1496 1497 1498 1498 1499 1499 1500 1500 1500 1501 1501 1502 1502 1503
1477 1478 1480 1484 1479 1473 1473 1473 1464 1463 1462 1463 1464 1466 1466 1467 1468 1469 1471 1471 1472 1473 1475 1476 1477 1479 1481 1482 1484 1485 1486 1488 1489 1490 1491 1492 1492 1493 1494 1494 1494 1495 1495 1496 1496 1496 1497 1497 1498